This demonstration page uses our WeatherBlox Daily Observations layout. Learn more.

Left ArrowRight Arrow

53.62937, 11.41316

Hourly Observations for November 17, 2021

Temp ( °F °C ) Dew Point ( °F °C ) Humidity (%) Winds ( mph kmh ) Pressure ( in mb ) Visibility ( mi km ) Precip ( " mm )
12:20 am 00:20 Mostly Cloudy 39 4 37 3 93 93 VRB 2 4 30.09 1019 5 8 N/A
12:50 am 00:50 Partly Cloudy 39 4 37 3 93 93 VRB 2 4 30.06 1018 5 8 N/A
1:20 am 01:20 Mostly Cloudy 39 4 37 3 93 93 VRB 2 4 30.06 1018 5 8 N/A
1:50 am 01:50 Mostly Cloudy 39 4 37 3 93 93 VRB 2 4 30.06 1018 4 6 N/A
2:20 am 02:20 Mostly Cloudy 39 4 37 3 93 93 VRB 2 4 30.06 1018 30 48 N/A
2:50 am 02:50 Mostly Cloudy 39 4 37 3 93 93 W 3 6 30.06 1018 6 9 N/A
3:20 am 03:20 Mostly Cloudy 39 4 36 2 87 87 VRB 5 7 30.06 1018 30 48 N/A
3:50 am 03:50 Mostly Cloudy 39 4 37 3 93 93 WSW 3 6 30.03 1017 30 48 N/A
4:20 am 04:20 Mostly Cloudy 39 4 37 3 93 93 WSW 3 6 30.03 1017 3 5 N/A
4:50 am 04:50 Partly Cloudy 39 4 37 3 93 93 WSW 3 6 30.03 1017 4 7 N/A
5:20 am 05:20 Mostly Cloudy 39 4 37 3 93 93 VRB 3 6 30.03 1017 30 48 N/A
5:50 am 05:50 Mostly Cloudy 39 4 37 3 93 93 VRB 3 6 30.03 1017 30 48 N/A
6:20 am 06:20 Mostly Cloudy with Light Rain 39 4 37 3 93 93 WSW 3 6 30.03 1017 6 9 N/A
6:50 am 06:50 Mostly Cloudy 39 4 36 2 87 87 VRB 3 6 30.03 1017 30 48 N/A
7:20 am 07:20 Mostly Cloudy 39 4 36 2 87 87 VRB 2 4 30.03 1017 30 48 N/A
7:50 am 07:50 Mostly Cloudy 39 4 36 2 87 87 SW 3 6 30.03 1017 30 48 N/A
8:20 am 08:20 Mostly Cloudy 39 4 37 3 93 93 S 3 6 30.00 1016 30 48 N/A
8:50 am 08:50 Partly Cloudy 39 4 37 3 93 93 S 3 6 30.00 1016 30 48 N/A
9:20 am 09:20 Mostly Cloudy 39 4 37 3 93 93 VRB 3 6 30.00 1016 30 48 N/A
9:50 am 09:50 Mostly Cloudy 39 4 37 3 93 93 VRB 6 9 30.00 1016 30 48 N/A
10:20 am 10:20 Mostly Cloudy 41 5 37 3 87 87 VRB 5 7 30.00 1016 30 48 N/A
10:50 am 10:50 Mostly Cloudy 41 5 39 4 93 93 VRB 5 7 30.00 1016 5 8 N/A
11:20 am 11:20 Cloudy 41 5 39 4 93 93 SSW 6 9 30.00 1016 4 7 N/A
11:50 am 11:50 Cloudy 41 5 39 4 93 93 SSW 6 9 30.00 1016 5 8 N/A
12:20 pm 12:20 Mostly Cloudy with Light Rain 41 5 41 5 100 100 SSW 6 9 29.98 1015 5 8 N/A
12:50 pm 12:50 Mostly Cloudy with Light Rain 43 6 41 5 93 93 VRB 6 9 29.97 1015 4 6 N/A
1:20 pm 13:20 Mostly Cloudy 43 6 43 6 100 100 VRB 5 7 29.97 1015 30 48 N/A
1:50 pm 13:50 Mostly Cloudy 45 7 43 6 93 93 VRB 5 7 29.97 1015 30 48 N/A
2:20 pm 14:20 Mostly Cloudy 45 7 43 6 93 93 VRB 6 9 29.97 1015 6 9 N/A
2:50 pm 14:50 Mostly Cloudy with Light Rain 45 7 45 7 100 100 WSW 7 11 29.97 1015 3 5 N/A
3:20 pm 15:20 Cloudy with Light Rain 46 8 45 7 93 93 WSW 8 13 29.97 1015 4 7 N/A
3:50 pm 15:50 Mostly Cloudy 46 8 45 7 93 93 WSW 7 11 29.97 1015 6 9 N/A
4:20 pm 16:20 Mostly Cloudy 46 8 45 7 93 93 VRB 5 7 29.97 1015 30 48 N/A
4:50 pm 16:50 Mostly Cloudy 45 7 43 6 93 93 WSW 6 9 30.00 1016 30 48 N/A
5:20 pm 17:20 Mostly Cloudy with Light Rain 46 8 43 6 87 87 WSW 12 19 30.00 1016 30 48 N/A
5:50 pm 17:50 Partly Cloudy 45 7 41 5 87 87 WSW 8 13 30.00 1016 30 48 N/A
6:20 pm 18:20 Mostly Cloudy with Light Rain 45 7 43 6 93 93 WSW 7 11 30.03 1017 30 48 N/A
6:50 pm 18:50 Mostly Cloudy 45 7 43 6 93 93 WSW 8 13 30.03 1017 30 48 N/A
7:20 pm 19:20 Partly Cloudy 45 7 43 6 93 93 WSW 7 11 30.03 1017 30 48 N/A
7:50 pm 19:50 Mostly Cloudy with Light Rain 45 7 43 6 93 93 WSW 9 15 30.06 1018 30 48 N/A
8:20 pm 20:20 Mostly Cloudy with Light Rain 45 7 41 5 87 87 W 8 13 30.06 1018 30 48 N/A
8:50 pm 20:50 Mostly Clear 45 7 41 5 87 87 WSW 8 13 30.06 1018 30 48 N/A
9:20 pm 21:20 Mostly Cloudy 45 7 41 5 87 87 WSW 8 13 30.09 1019 30 48 N/A
9:50 pm 21:50 Partly Cloudy 43 6 39 4 87 87 WSW 7 11 30.09 1019 30 48 N/A
10:20 pm 22:20 Mostly Clear 43 6 39 4 87 87 WSW 7 11 30.09 1019 30 48 N/A
10:50 pm 22:50 Mostly Cloudy 43 6 41 5 93 93 WSW 8 13 30.09 1019 30 48 N/A
11:20 pm 23:20 Mostly Clear 41 5 39 4 93 93 WSW 6 9 30.09 1019 30 48 N/A
11:50 pm 23:50 Partly Cloudy 43 6 39 4 87 87 WSW 7 11 30.09 1019 30 48 N/A

Powered by AerisWeather